OINR  Ramsar  Airport

Iran

Add Bookmark
ICAO OINR
IATA RZR
Type Airport
Status Operational
Latitude
36° 54' 35" N
36.909901
Longitude
50° 40' 46" E
50.679600
Local (DST + 5) UTC (GMT + 4)
Sep 3, 2015 11:38 Sep 3, 2015 19:08
Sunrise-Sunset Local UTC
Begin Civil Twilight 06:11 01:41
Sunrise 06:38 02:08
Sunset 07:34 15:04
End Civil Twilight 08:01 15:31
VFR
VFR
MVFR
MVFR
IFR
IFR
LIFR
LIFR
Unknown
Unavailable

Current Weather

METAR Observed VFR
OINR 031800Z 00000KT CAVOK 24/21 Q1013 Thu, Sep 3, 2015 @ 18:00 UTC
(1 Hour, 8 Minutes ago)
Visual Flight Rules
Wind Visibility Conditions
Calm 10 km or more
  • No significant weather
Temperatures Readings Precipitation
Current Temp
24°C
75°F
Dewpoint
21°C
70°F
Humidity 83%
Altimeter 29.91" Hg
Sea Level Pressure 1,013 mb
None Recorded

Additional weather within a 92.6km radius of OINR

Map ICAO Location
OINN 75km E/SE (111°)
VFR
VFR
MVFR
MVFR
IFR
IFR
LIFR
LIFR
Unknown
Unavailable
-
-

CheckWX.com is intended as a tool to help pilots better visualize weather data. It is not intended as a substitute for an official weather briefing obtained from a Flight Service Station. CheckWX.com does not meet the FAA requirements for an official pre-flight weather briefing. Therefore, it's important that pilots still call and obtain an official FSS pre-flight weather briefing.

© 2007-2015 CheckWX.com
19:08:22 UTC